When you browse on this site, cookies collect data to enhance your experience and personalize the content and advertising you see.
Visit our Privacy Policy to learn more. By continuing to use the site, you agree to this use of cookies and data.

Meteo pe oră la Gyor

Astăzi, 3 August, Luni

Timp Temperatura Precipitaţii Vânt Presiune Umiditate
00:00 +22°C° 0 mm 3 m/s 749 mmHg 55%
01:00 +22°C° 0 mm 3 m/s 749 mmHg 56%
02:00 +22°C° 0 mm 3 m/s 748 mmHg 57%
03:00 +23°C° 0 mm 2 m/s 748 mmHg 58%
04:00 +21°C° 0 mm 2 m/s 748 mmHg 59%
05:00 +21°C° 0 mm 2 m/s 748 mmHg 58%
06:00 +22°C° 0 mm 3 m/s 747 mmHg 56%
07:00 +22°C° 0 mm 3 m/s 747 mmHg 55%
08:00 +24°C° 0 mm 3 m/s 747 mmHg 53%
09:00 +25°C° 0 mm 4 m/s 747 mmHg 50%
10:00 +26°C° 0 mm 4 m/s 747 mmHg 48%
11:00 +26°C° 0 mm 5 m/s 746 mmHg 48%
12:00 +27°C° 0 mm 5 m/s 746 mmHg 48%
13:00 +27°C° 0 mm 5 m/s 746 mmHg 48%
14:00 +27°C° 0 mm 4 m/s 745 mmHg 50%
15:00 +27°C° 0 mm 4 m/s 745 mmHg 52%
16:00 +27°C° 0 mm 3 m/s 745 mmHg 54%
17:00 +25°C° 0.2 mm 3 m/s 744 mmHg 60%
18:00 +24°C° 0.2 mm 2 m/s 744 mmHg 66%
19:00 +23°C° 0.2 mm 2 m/s 743 mmHg 71%
20:00 +21°C° 0.5 mm 2 m/s 743 mmHg 77%
21:00 +20°C° 0.5 mm 2 m/s 743 mmHg 82%
22:00 +19°C° 0.5 mm 2 m/s 743 mmHg 88%
23:00 +19°C° 1 mm 2 m/s 743 mmHg 90%

Mâine, 4 August, Marţi

Timp Temperatura Precipitaţii Vânt Presiune Umiditate
00:00 +19°C° 1 mm 2 m/s 743 mmHg 93%
01:00 +18°C° 1 mm 2 m/s 742 mmHg 95%
02:00 +19°C° 0.5 mm 2 m/s 742 mmHg 95%
03:00 +19°C° 0.5 mm 2 m/s 742 mmHg 95%
04:00 +20°C° 0.5 mm 1 m/s 742 mmHg 96%
05:00 +19°C° 0 mm 2 m/s 742 mmHg 93%
06:00 +20°C° 0 mm 2 m/s 743 mmHg 91%
07:00 +20°C° 0 mm 2 m/s 743 mmHg 89%
08:00 +21°C° 0.1 mm 2 m/s 743 mmHg 83%
09:00 +23°C° 0.1 mm 2 m/s 744 mmHg 76%
10:00 +25°C° 0.1 mm 2 m/s 744 mmHg 70%
11:00 +25°C° 0 mm 3 m/s 745 mmHg 66%
12:00 +26°C° 0 mm 3 m/s 745 mmHg 61%
13:00 +27°C° 0 mm 3 m/s 745 mmHg 57%
14:00 +27°C° 0.1 mm 4 m/s 745 mmHg 58%
15:00 +27°C° 0.1 mm 5 m/s 745 mmHg 59%
16:00 +27°C° 0.1 mm 6 m/s 745 mmHg 60%
17:00 +24°C° 0.5 mm 6 m/s 746 mmHg 66%
18:00 +22°C° 0.5 mm 6 m/s 746 mmHg 73%
19:00 +20°C° 0.5 mm 7 m/s 747 mmHg 80%
20:00 +18°C° 0 mm 7 m/s 747 mmHg 81%
21:00 +17°C° 0 mm 7 m/s 748 mmHg 81%
22:00 +16°C° 0 mm 8 m/s 748 mmHg 82%
23:00 +16°C° 0 mm 8 m/s 748 mmHg 81%

Poimâine, 5 August, Miercuri

Timp Temperatura Precipitaţii Vânt Presiune Umiditate
00:00 +16°C° 0 mm 7 m/s 748 mmHg 81%
01:00 +16°C° 0 mm 7 m/s 749 mmHg 80%
02:00 +16°C° 0 mm 7 m/s 749 mmHg 80%
03:00 +16°C° 0 mm 7 m/s 749 mmHg 81%
04:00 +16°C° 0 mm 7 m/s 749 mmHg 81%
05:00 +16°C° 0 mm 6 m/s 749 mmHg 80%
06:00 +17°C° 0 mm 6 m/s 750 mmHg 79%
07:00 +19°C° 0 mm 6 m/s 750 mmHg 77%
08:00 +20°C° 0 mm 6 m/s 750 mmHg 76%
09:00 +20°C° 0 mm 5 m/s 750 mmHg 74%
10:00 +21°C° 0 mm 5 m/s 751 mmHg 72%
11:00 +22°C° 0.1 mm 4 m/s 751 mmHg 72%
12:00 +22°C° 0.1 mm 4 m/s 751 mmHg 73%
13:00 +22°C° 0.1 mm 4 m/s 751 mmHg 74%
14:00 +22°C° 0.2 mm 4 m/s 751 mmHg 76%
15:00 +22°C° 0.2 mm 4 m/s 751 mmHg 77%
16:00 +22°C° 0.2 mm 4 m/s 751 mmHg 79%
17:00 +22°C° 0.2 mm 4 m/s 751 mmHg 78%
18:00 +22°C° 0.2 mm 4 m/s 751 mmHg 77%
19:00 +21°C° 0.2 mm 4 m/s 751 mmHg 76%
20:00 +21°C° 0.6 mm 3 m/s 751 mmHg 79%
21:00 +20°C° 0.6 mm 3 m/s 752 mmHg 82%
22:00 +19°C° 0.6 mm 3 m/s 752 mmHg 85%
23:00 +19°C° 0.2 mm 3 m/s 752 mmHg 86%

6 August, Joi

Timp Temperatura Precipitaţii Vânt Presiune Umiditate
00:00 +19°C° 0.2 mm 3 m/s 752 mmHg 86%
01:00 +19°C° 0.2 mm 3 m/s 752 mmHg 86%
02:00 +18°C° 0 mm 3 m/s 752 mmHg 87%
03:00 +18°C° 0 mm 3 m/s 752 mmHg 88%
04:00 +17°C° 0 mm 3 m/s 752 mmHg 89%
05:00 +18°C° 0 mm 3 m/s 752 mmHg 87%
06:00 +19°C° 0 mm 3 m/s 753 mmHg 84%
07:00 +19°C° 0 mm 3 m/s 753 mmHg 81%
08:00 +22°C° 0 mm 3 m/s 753 mmHg 74%
09:00 +25°C° 0 mm 3 m/s 753 mmHg 66%
10:00 +27°C° 0 mm 3 m/s 753 mmHg 59%
11:00 +28°C° 0 mm 4 m/s 753 mmHg 55%
12:00 +29°C° 0 mm 4 m/s 753 mmHg 51%
13:00 +32°C° 0 mm 4 m/s 753 mmHg 47%
14:00 +30°C° 0 mm 4 m/s 753 mmHg 49%
15:00 +30°C° 0 mm 4 m/s 753 mmHg 50%
16:00 +29°C° 0 mm 4 m/s 753 mmHg 52%
17:00 +28°C° 0 mm 4 m/s 753 mmHg 54%
18:00 +27°C° 0 mm 3 m/s 753 mmHg 56%
19:00 +26°C° 0 mm 2 m/s 753 mmHg 59%
20:00 +25°C° 0 mm 2 m/s 754 mmHg 60%
21:00 +24°C° 0 mm 2 m/s 754 mmHg 62%
22:00 +23°C° 0 mm 1 m/s 754 mmHg 64%
23:00 +21°C° 0 mm 2 m/s 754 mmHg 66%

7 August, Vineri

Timp Temperatura Precipitaţii Vânt Presiune Umiditate
00:00 +21°C° 0 mm 2 m/s 754 mmHg 68%
01:00 +21°C° 0 mm 2 m/s 754 mmHg 70%
02:00 +20°C° 0 mm 2 m/s 754 mmHg 73%
03:00 +20°C° 0 mm 2 m/s 754 mmHg 75%
04:00 +19°C° 0 mm 2 m/s 754 mmHg 78%
05:00 +21°C° 0 mm 2 m/s 754 mmHg 73%
06:00 +23°C° 0 mm 2 m/s 755 mmHg 68%
07:00 +24°C° 0 mm 3 m/s 755 mmHg 63%
08:00 +26°C° 0 mm 3 m/s 755 mmHg 57%
09:00 +28°C° 0 mm 3 m/s 755 mmHg 52%
10:00 +30°C° 0 mm 3 m/s 755 mmHg 46%
11:00 +31°C° 0 mm 3 m/s 755 mmHg 43%
12:00 +33°C° 0 mm 3 m/s 755 mmHg 39%
13:00 +34°C° 0 mm 3 m/s 754 mmHg 36%
14:00 +34°C° 0 mm 3 m/s 754 mmHg 35%
15:00 +34°C° 0 mm 3 m/s 754 mmHg 35%
16:00 +34°C° 0 mm 2 m/s 753 mmHg 35%
17:00 +31°C° 0 mm 2 m/s 753 mmHg 41%
18:00 +29°C° 0 mm 2 m/s 753 mmHg 47%
19:00 +27°C° 0 mm 2 m/s 753 mmHg 53%
20:00 +26°C° 0 mm 2 m/s 753 mmHg 56%
21:00 +25°C° 0 mm 2 m/s 754 mmHg 58%
22:00 +24°C° 0 mm 2 m/s 754 mmHg 60%
23:00 +24°C° 0 mm 2 m/s 754 mmHg 63%

8 August, Sâmbătă

Timp Temperatura Precipitaţii Vânt Presiune Umiditate
00:00 +23°C° 0 mm 2 m/s 754 mmHg 65%
01:00 +23°C° 0 mm 2 m/s 753 mmHg 68%
02:00 +21°C° 0 mm 2 m/s 753 mmHg 71%
03:00 +21°C° 0 mm 1 m/s 753 mmHg 74%
04:00 +21°C° 0 mm 1 m/s 753 mmHg 77%
05:00 +22°C° 0 mm 1 m/s 753 mmHg 73%
06:00 +23°C° 0 mm 1 m/s 753 mmHg 69%
07:00 +25°C° 0 mm 2 m/s 753 mmHg 65%
08:00 +26°C° 0 mm 2 m/s 753 mmHg 58%
09:00 +28°C° 0 mm 2 m/s 753 mmHg 52%
10:00 +30°C° 0 mm 2 m/s 753 mmHg 46%
11:00 +31°C° 0 mm 3 m/s 753 mmHg 43%
12:00 +33°C° 0 mm 3 m/s 752 mmHg 40%
13:00 +34°C° 0 mm 3 m/s 752 mmHg 38%
14:00 +34°C° 0 mm 3 m/s 751 mmHg 37%
15:00 +34°C° 0 mm 2 m/s 751 mmHg 36%
16:00 +34°C° 0 mm 2 m/s 751 mmHg 36%
17:00 +31°C° 0 mm 2 m/s 751 mmHg 41%
18:00 +29°C° 0 mm 2 m/s 751 mmHg 46%
19:00 +27°C° 0 mm 1 m/s 751 mmHg 51%
20:00 +26°C° 0 mm 1 m/s 751 mmHg 55%
21:00 +25°C° 0 mm 1 m/s 751 mmHg 58%
22:00 +22°C° 0 mm 0 m/s 751 mmHg 62%
23:00 +23°C° 0 mm 1 m/s 751 mmHg 64%
Arată mai mult